GFSCGP_con_sbcape_057.txt.gz
CAPE
0 0 0 0 0 0 0 0 0 0 0 0 0 0 0 0 0 0 0 0 0 0 0 0 0 0 0 0 2 59 73 9 0 341 804 977 1154 1199 1294 1072 699 491 446 332
0 0 0 0 0 0 0 0 0 0 0 0 0 0 0 0 0 0 0 0 0 0 0 0 0 0 0 0 0 0 0 13 0 111 365 606 882 1103 1184 1018 638 661 764 713
0 0 0 0 0 0 0 0 0 0 0 0 0 0 0 0 0 0 0 0 0 0 0 0 0 0 0 0 0 0 0 0 15 170 333 42 34 63 362 279 390 408 375 614
0 0 0 0 0 0 0 0 0 0 0 0 0 0 0 0 0 0 0 0 0 0 0 0 0 0 0 0 0 0 0 0 4 446 687 676 777 824 236 345 571 362 95 315
0 0 0 0 0 0 0 0 0 0 0 0 0 0 0 0 0 0 0 0 0 0 0 0 0 0 0 0 0 0 0 0 0 152 853 827 754 210 4 0 38 30 68 315
0 0 0 0 0 0 0 0 0 0 0 0 0 0 0 0 0 0 0 0 0 0 0 0 0 0 0 0 0 0 0 0 1 50 383 511 492 24 0 0 0 0 69 399
0 0 0 0 0 0 0 0 0 0 0 0 0 0 0 0 0 0 0 0 0 0 0 0 0 0 0 0 0 0 0 0 0 6 131 105 90 13 0 0 2 57 194 408
0 0 0 0 0 0 0 0 0 0 0 0 0 0 0 0 0 0 0 0 0 0 0 0 0 0 0 0 0 0 0 0 0 0 10 8 0 0 0 0 49 154 400 491
0 0 0 0 0 0 0 0 0 0 0 0 0 0 0 0 0 0 0 0 0 0 0 0 0 0 0 0 0 0 0 0 0 0 0 0 0 0 0 5 186 398 548 462
0 0 0 0 0 0 0 0 0 0 0 0 0 0 0 0 0 0 0 0 0 0 0 0 0 0 0 0 0 0 0 0 0 0 0 0 0 0 3 224 457 498 282 477
0 0 0 0 0 0 0 0 0 0 0 2 0 0 0 0 9 0 0 0 0 0 0 0 0 0 0 0 0 0 0 0 0 0 0 0 24 20 224 394 473 389 340 386
0 0 0 0 0 0 0 0 0 0 0 0 10 0 0 0 0 0 0 0 0 0 0 0 0 0 0 0 0 0 0 0 0 0 0 0 54 349 480 483 453 365 422 492
0 0 0 0 0 0 0 0 0 0 0 0 4 0 0 0 0 0 0 0 0 0 0 0 0 0 0 0 0 0 0 150 0 57 151 415 597 657 662 561 511 495 488 621
32 0 0 0 0 0 0 0 0 2 2 0 0 0 0 0 0 0 0 0 0 0 0 0 0 0 0 0 3 0 0 546 470 670 683 1041 1179 917 709 662 756 705 744 710
8 0 0 0 0 0 0 0 0 0 0 21 0 0 0 0 0 0 0 0 0 48 48 42 0 0 103 19 0 0 0 493 1377 1268 1141 1288 1445 1133 987 958 958 892 802 671
0 0 0 0 0 0 0 0 0 0 0 0 0 0 0 0 0 0 0 0 0 9 0 0 0 0 39 38 1 0 0 134 1495 1379 1149 1081 1010 934 868 739 646 627 302 92
0 0 0 0 0 0 0 0 0 0 0 0 0 0 0 0 0 0 0 0 0 0 0 0 0 0 0 121 58 4 0 27 1282 1115 929 793 615 448 413 283 215 89 33 0
0 0 21 1 0 1 0 0 0 0 0 0 0 0 0 0 0 0 0 0 0 0 0 0 0 0 0 0 80 12 12 18 1153 1007 903 600 444 287 111 92 17 0 0 0
0 0 17 2 0 0 0 0 0 0 0 0 0 0 0 0 0 0 0 0 0 0 0 0 0 0 0 0 15 17 38 0 839 865 716 422 314 67 1 0 0 0 0 0
0 0 1 1 5 0 0 0 0 2 0 0 0 0 1 0 14 0 0 0 0 0 0 0 0 0 0 0 5 6 2 0 918 674 493 291 147 28 0 0 0 0 0 0
0 4 4 0 1 0 0 0 0 1 0 0 0 2 0 9 5 0 0 0 0 0 0 0 0 0 0 0 0 0 1 1 363 310 189 52 43 1 0 0 0 0 0 0
0 0 7 1 0 0 0 0 16 7 3 5 2 1 7 7 8 2 5 5 0 0 0 0 0 0 0 24 2 0 0 3 0 57 75 16 1 0 0 0 0 0 0 0
1 4 14 1 0 0 0 2 4 19 6 0 0 1 13 26 14 11 3 0 0 0 0 0 0 0 0 68 1 0 0 0 0 8 6 0 0 0 0 12 4 0 0 0
0 0 0 2 0 0 2 0 1 0 0 0 3 13 17 27 25 8 4 3 0 0 0 0 2 0 52 34 4 0 0 1 16 0 10 0 0 0 15 6 0 0 0 0
0 0 0 4 3 3 6 5 0 0 0 1 14 20 29 17 10 8 7 6 1 0 0 0 15 16 92 0 48 7 0 23 41 39 13 2 2 0 0 1 0 0 0 0
0 0 22 5 1 9 14 0 0 0 12 20 18 11 10 12 9 10 4 2 1 1 0 2 13 96 104 73 67 59 27 78 88 15 1 1 0 0 0 0 0 1 1 0

GFSCGP_con_sbcape_060.txt.gz
CAPE
0 0 0 0 0 0 0 0 0 0 0 0 0 0 0 0 0 0 0 0 0 0 0 0 0 0 0 0 0 0 13 89 110 165 249 230 195 192 238 301 345 262 174 134
0 0 0 0 0 0 0 0 0 0 0 0 0 0 0 0 0 0 0 0 0 0 0 0 0 0 0 0 0 0 0 3 0 128 326 495 504 509 715 794 650 475 379 343
0 0 0 0 0 0 0 0 0 0 0 0 0 0 0 0 0 0 0 0 0 0 0 0 0 0 0 0 0 0 0 0 0 8 31 56 21 7 225 431 931 773 666 558
0 0 0 0 0 0 0 0 0 0 0 0 0 0 0 0 0 0 0 0 0 0 0 0 0 0 0 0 0 0 0 0 0 0 21 121 278 393 461 593 669 601 679 735
0 0 0 0 0 0 0 0 0 0 0 0 0 0 0 0 0 0 0 0 0 0 0 0 0 0 0 0 0 0 0 0 0 0 4 85 133 191 337 25 458 374 241 267
0 0 0 0 0 0 0 0 0 0 0 0 0 0 0 0 0 0 0 0 0 0 0 0 0 0 0 0 0 0 0 0 0 0 0 81 261 359 25 0 50 118 62 139
0 0 0 0 0 0 0 0 0 0 0 0 0 0 0 0 0 0 0 0 0 0 0 0 0 0 0 0 0 0 0 0 0 0 0 4 189 400 155 244 114 14 30 130
0 0 0 0 0 0 0 0 0 0 0 0 0 0 0 0 0 0 0 0 0 0 0 0 0 0 0 0 0 0 0 0 0 0 0 0 48 264 170 128 3 0 16 90
0 0 0 0 0 0 0 0 0 0 0 0 0 0 0 0 0 0 0 0 0 0 0 0 0 0 0 0 0 0 0 0 0 0 0 0 0 65 40 0 0 0 28 153
0 0 0 0 0 0 0 0 0 0 0 0 0 0 0 0 0 0 0 0 0 0 0 0 0 0 0 0 0 0 0 0 0 0 0 0 0 0 0 0 0 21 135 372
0 0 0 0 0 0 0 0 0 0 0 0 0 0 0 0 0 0 0 0 0 0 0 0 0 0 0 0 0 0 0 0 0 0 0 0 0 0 0 0 9 114 170 381
3 0 0 0 0 0 0 0 0 0 0 0 0 0 0 0 0 0 0 0 0 0 0 0 0 0 0 0 0 0 0 0 0 0 0 0 0 0 0 54 124 190 330 470
2 0 0 0 0 0 0 0 0 0 0 0 0 0 0 0 0 0 0 0 0 0 0 0 0 0 0 0 0 0 0 0 0 38 0 0 0 25 85 153 263 369 433 583
29 0 5 0 0 0 0 0 0 0 5 0 0 0 0 0 0 0 0 0 0 0 0 2 0 0 0 0 0 0 0 0 0 271 0 0 12 161 248 318 386 511 614 703
0 5 0 0 0 0 0 0 0 0 0 1 0 0 0 0 0 0 0 0 0 0 0 0 0 0 0 0 0 0 4 0 0 784 316 385 540 507 536 612 628 687 778 786
0 1 0 0 0 0 0 0 0 0 0 0 0 0 0 0 0 0 0 0 0 0 0 0 0 0 0 0 0 0 0 15 0 973 962 1127 1042 983 941 862 783 750 820 687
2 1 0 2 0 0 0 0 0 0 0 0 0 0 0 0 0 0 0 0 0 0 0 0 0 0 0 0 0 0 0 14 24 825 1131 1146 1066 1088 793 760 812 742 506 406
0 0 0 1 0 0 0 0 0 0 0 0 0 0 0 0 0 0 0 0 0 0 0 0 0 0 0 0 0 1 1 66 44 1015 990 1024 1110 1013 747 703 577 208 154 46
0 0 4 9 0 0 0 0 0 0 0 0 0 0 0 2 0 0 0 0 0 0 0 0 0 0 0 0 0 2 26 179 79 691 1091 935 904 739 471 266 44 4 0 0
0 4 12 0 0 0 0 0 0 0 0 0 0 1 14 2 9 0 0 0 0 0 0 0 0 0 0 0 0 5 71 88 99 426 948 634 432 320 247 45 0 0 0 2
0 7 1 9 13 0 0 0 0 0 0 0 3 16 2 3 0 0 4 3 3 0 0 0 0 0 0 0 0 5 49 6 18 853 587 320 143 69 33 0 0 0 0 1
0 0 1 0 0 1 0 0 24 1 1 7 16 1 0 0 2 4 20 16 12 2 0 0 0 0 0 0 2 0 6 19 4 568 383 126 10 28 5 0 2 1 0 0
0 0 0 0 0 0 0 0 0 16 12 1 0 0 0 12 11 9 22 19 6 7 1 0 0 0 0 0 0 55 1 34 42 288 112 60 5 2 1 0 1 1 1 1
0 0 0 0 0 0 0 0 9 2 0 0 0 1 13 25 25 19 11 8 6 0 1 0 3 0 1 0 42 20 20 23 169 110 27 7 0 1 0 0 0 0 0 1
0 0 0 0 0 0 0 8 38 2 0 0 18 16 35 24 12 12 8 4 5 4 0 0 1 1 2 6 52 34 27 172 60 6 1 0 0 1 0 0 1 1 1 0
0 1 14 3 0 6 11 29 10 0 0 3 20 17 10 16 11 6 5 5 7 5 3 2 3 5 2 4 58 91 21 77 56 13 0 0 0 0 0 0 0 1 2 0

GFSCGP_con_sbcape_063.txt.gz
CAPE
0 0 0 0 0 0 0 0 0 0 0 0 0 0 0 0 0 0 0 0 0 0 0 0 0 0 0 0 0 0 0 257 1748 1286 1002 584 256 156 130 238 179 237 317 94
0 0 0 0 0 0 0 0 0 0 0 0 0 0 0 0 0 0 0 0 0 0 0 0 0 0 0 0 0 0 0 0 182 1017 1448 1357 1230 849 485 404 870 802 591 492
0 0 0 0 0 0 0 0 0 0 0 0 0 0 0 0 0 0 0 0 0 0 0 0 0 0 0 0 0 0 0 0 0 6 498 1243 1379 1338 1522 1511 1502 1610 1351 1162
0 0 0 0 0 0 0 0 0 0 0 0 0 0 0 0 0 0 0 0 0 0 0 0 0 0 0 0 0 0 0 0 0 0 6 773 561 901 1361 1843 1941 2275 1635 1480
0 0 0 0 0 0 0 0 0 0 0 0 0 0 0 0 0 0 0 0 0 0 0 0 0 0 0 0 0 0 0 0 0 0 0 4 441 478 1289 1387 2415 2242 2120 2027
0 0 0 0 0 0 0 0 0 0 0 0 0 0 0 0 0 0 0 0 0 0 0 0 0 0 0 0 0 0 0 0 0 0 0 1 207 629 643 1059 1287 1661 1685 1954
0 0 0 0 0 0 0 0 0 0 0 0 0 0 0 0 0 0 0 0 0 0 0 0 0 0 0 0 0 0 0 0 0 0 0 0 76 450 943 1226 1105 1126 1082 1367
0 0 0 0 0 0 0 0 0 0 0 0 0 0 0 0 0 0 0 0 0 0 0 0 0 0 0 0 0 0 0 0 0 0 0 0 1 3 405 1149 1139 737 785 1405
0 0 0 0 0 0 0 0 0 0 0 0 0 0 0 0 0 0 0 0 0 0 0 0 0 0 0 0 0 0 0 0 0 0 0 0 0 145 280 1321 1749 1150 1356 1203
0 2 0 0 0 0 0 0 0 0 0 0 0 0 0 0 0 0 0 0 0 0 0 0 0 0 0 0 0 0 0 0 0 0 0 0 0 26 454 971 1403 1148 1253 1033
0 7 1 0 0 0 2 0 0 1 0 2 0 0 0 0 0 0 0 0 0 0 0 0 0 0 0 0 0 0 0 0 0 0 0 0 0 4 204 603 602 928 1030 1121
0 27 44 1 6 0 0 8 5 29 6 7 15 0 0 0 0 0 0 0 0 0 0 0 0 10 22 0 0 0 0 0 0 0 0 0 9 72 186 375 552 770 1007 1113
48 78 33 5 0 0 0 0 0 1 1 9 18 0 0 0 0 0 0 0 0 0 0 0 0 0 11 7 1 0 0 0 0 0 0 0 640 327 358 463 738 936 1120 1251
31 49 34 27 10 9 18 9 8 19 49 28 15 0 0 0 0 0 0 0 0 0 0 0 0 15 10 0 0 0 0 0 0 0 2 2 740 529 369 639 988 1190 1285 1399
39 15 20 13 14 27 13 12 1 23 14 24 0 0 0 2 0 0 0 0 0 0 0 0 0 10 0 0 0 0 0 0 0 0 1 4 654 554 340 707 1105 1302 1448 1564
41 47 39 18 21 28 17 0 0 0 0 0 0 2 0 0 0 0 0 0 0 0 0 0 0 0 0 0 0 0 0 0 0 0 1 4 648 846 572 1071 1334 1445 1618 1800
35 44 33 8 5 10 5 0 0 0 0 0 0 0 8 0 1 0 0 0 0 0 0 0 0 0 1 1 0 0 0 0 0 0 1 2 862 830 964 1124 1226 1456 1431 1659
13 26 38 23 27 11 0 0 3 3 1 0 0 3 4 1 4 3 2 2 1 0 0 0 1 6 6 0 2 0 0 0 1 0 62 15 1144 857 990 1213 1522 1398 1581 1876
9 20 27 37 25 0 0 0 3 2 0 0 0 1 8 11 18 4 0 1 0 1 2 4 10 13 9 9 2 2 1 3 3 20 77 183 971 938 1036 1312 1356 1277 1253 940
7 3 39 43 41 8 0 2 0 4 23 0 8 6 11 18 13 5 1 7 15 21 22 38 33 24 19 9 2 7 4 3 8 0 119 176 861 907 946 1009 855 810 856 8
19 16 13 11 4 10 0 1 7 55 38 30 46 30 8 9 13 23 12 18 18 17 43 57 48 31 14 3 7 17 7 2 9 18 139 483 866 995 786 627 320 264 51 1
17 26 54 21 42 27 70 21 33 39 16 45 50 20 26 16 15 14 23 14 15 20 25 23 41 22 10 4 4 4 7 6 23 76 87 1054 931 629 302 177 64 20 2 4
13 76 73 53 40 6 0 1 5 45 67 53 44 18 8 19 16 25 14 31 18 10 9 10 14 15 3 2 5 10 3 35 144 104 332 590 378 217 112 71 14 4 9 4
1 0 20 11 0 2 2 0 35 67 86 56 57 9 23 28 31 17 22 12 10 7 7 6 10 10 11 0 1 1 8 156 50 63 370 280 92 28 48 15 83 38 4 4
3 8 4 9 4 2 7 36 79 60 43 47 27 34 20 19 26 17 10 9 7 10 8 8 10 11 4 4 2 0 36 36 14 268 170 104 17 58 47 134 99 35 19 0
6 14 11 24 5 10 20 85 57 43 32 42 24 24 25 13 11 10 12 12 11 9 8 7 5 6 3 3 2 1 72 123 110 154 122 40 3 5 2 2 1 1 1 0

GFSCGP_con_sbcape_069.txt.gz
CAPE
0 0 0 0 0 0 0 0 0 0 0 0 0 0 0 0 0 0 0 0 0 0 0 0 0 0 0 0 0 0 0 3 522 2069 1688 1842 1632 1109 487 538 918 1129 1160 1039
0 0 0 0 0 0 0 0 0 0 0 0 0 0 0 0 0 0 0 0 0 0 0 0 0 0 0 0 2 0 0 13 27 191 2333 1941 2209 2109 1572 1027 867 897 1291 1596
0 0 0 0 0 0 0 0 0 0 2 1 0 0 0 0 0 0 0 0 0 0 0 0 0 0 0 0 0 0 0 1 84 64 228 1332 2110 2088 2516 2274 1999 1908 1435 1690
0 0 0 0 0 0 1 0 0 0 4 1 2 0 2 0 0 0 0 0 0 0 0 0 0 0 0 0 0 0 0 0 45 36 251 790 543 853 929 2141 3444 2890 1673 1791
0 3 0 0 0 1 1 7 11 18 16 8 0 0 0 0 0 0 0 0 0 0 0 0 0 0 0 0 0 0 0 0 45 194 406 143 290 54 144 843 2897 2989 1308 2376
3 9 7 2 3 1 0 9 19 17 18 7 0 1 0 18 0 0 0 0 0 0 0 0 0 0 0 0 0 0 0 0 4 13 101 421 287 543 281 457 862 840 2054 3085
30 30 35 15 7 7 19 13 22 36 58 13 28 6 10 1 0 2 0 0 0 0 0 0 0 0 0 0 0 0 0 0 0 1 12 23 322 508 570 801 339 636 616 1250
105 115 122 108 11 18 71 80 61 45 74 48 0 1 6 0 0 0 0 0 0 0 0 0 0 0 0 0 0 0 0 0 0 0 0 17 134 0 38 351 209 231 362 623
264 171 31 61 63 38 55 149 99 79 60 32 22 60 26 0 0 0 0 0 0 0 0 0 0 0 0 0 0 0 0 0 0 0 4 4 101 270 168 770 1018 314 1077 707
199 165 207 163 72 62 177 130 170 138 87 82 24 30 20 13 8 0 0 0 1 1 0 0 0 0 0 0 0 0 0 0 0 0 0 16 48 52 255 514 941 1177 1540 1985
239 215 236 188 289 245 189 129 161 166 131 161 117 46 8 2 7 22 14 20 2 2 11 3 2 0 0 0 0 1 4 0 0 0 0 0 4 62 150 665 732 1075 1632 2092
184 226 252 164 209 233 259 3 152 241 181 203 139 48 0 0 21 42 4 2 15 37 15 10 5 2 3 3 2 0 0 2 2 0 0 0 0 0 394 491 644 1358 1549 1719
264 194 235 219 199 234 239 220 183 217 289 184 296 101 71 32 30 27 40 82 47 52 37 22 10 10 13 12 3 0 5 13 2 0 0 1 13 86 426 509 799 407 1435 1574
21 167 132 161 165 12 11 120 199 145 298 97 105 60 31 37 12 128 115 86 70 80 47 40 25 12 10 8 10 5 3 1 1 0 0 0 61 56 216 433 569 527 566 1467
45 49 80 71 56 46 38 48 77 112 187 114 73 65 39 54 58 104 127 101 90 68 73 64 53 46 25 17 7 2 0 0 0 0 0 0 36 48 49 226 345 503 424 1776
67 75 55 63 54 55 89 67 48 58 67 90 56 41 33 18 60 75 109 171 125 70 78 74 72 78 70 63 46 9 4 3 1 0 0 0 0 7 95 329 400 819 399 2162
70 116 79 109 62 82 96 71 50 45 55 53 55 42 80 55 109 184 176 148 133 121 72 88 95 76 72 52 32 14 13 9 10 3 0 0 4 13 70 191 223 758 995 2309
38 42 63 45 66 45 48 103 136 117 107 134 106 128 160 157 152 158 165 130 35 52 72 58 49 33 55 34 57 23 14 41 15 14 2 1 29 37 110 424 712 1033 1213 2253
51 41 128 81 100 72 85 205 231 216 140 106 129 164 173 201 121 72 111 104 79 59 40 39 52 39 123 46 18 6 25 52 39 21 24 31 65 169 343 487 919 600 1462 2243
19 30 76 116 180 82 177 122 209 168 83 346 319 222 113 69 113 125 195 37 6 9 46 50 64 35 41 38 42 84 78 62 52 41 47 101 205 608 765 880 780 486 1698 2426
31 22 24 76 78 87 172 266 212 157 226 247 141 123 94 70 77 80 13 30 34 30 43 45 11 41 64 49 47 44 82 54 66 54 54 166 696 911 980 950 424 675 2084 2306
135 132 146 140 115 176 229 131 167 263 204 158 124 68 70 55 42 44 44 41 49 33 39 13 12 23 24 3 1 20 48 50 80 48 55 458 632 829 887 816 251 1145 1512 1744
123 255 364 108 218 269 202 214 240 181 101 41 35 33 33 32 28 31 42 29 24 29 23 18 21 28 2 0 7 16 31 34 36 133 265 519 800 732 756 277 349 924 1243 1184
44 57 121 68 57 37 13 6 41 25 59 38 44 43 49 44 27 19 23 28 34 16 21 16 26 11 7 13 16 20 48 68 82 75 119 601 559 673 289 238 875 852 683 773
34 73 17 6 20 15 0 9 37 55 99 42 41 39 26 26 16 29 31 30 22 14 6 6 12 12 14 22 22 17 52 65 80 308 401 290 476 399 469 334 466 906 931 1098
16 30 34 27 11 26 25 23 8 20 64 44 40 16 22 22 26 16 17 13 12 12 11 12 13 25 18 17 12 16 41 140 137 133 271 290 98 76 2 1 1 1 0 84

GFSCGP_con_sbcape_072.txt.gz
CAPE
0 0 0 0 0 0 0 0 0 0 0 0 0 0 0 0 0 0 0 0 0 0 0 112 19 1 0 77 213 370 381 505 1179 2539 1602 1423 1433 1228 876 1122 805 1008 1387 1600
0 0 0 0 0 0 0 0 0 0 0 0 0 0 0 0 0 0 0 0 0 0 0 37 122 1 9 44 53 87 488 642 299 2051 2482 1298 1394 1723 968 487 351 659 1521 1188
0 0 0 0 0 0 0 0 0 0 0 1 1 0 0 0 0 0 0 4 0 2 0 0 5 31 2 90 161 10 138 230 490 462 518 1539 2047 2241 1927 2424 915 527 362 898
0 0 0 1 0 0 0 0 0 0 0 1 3 25 22 0 6 0 0 0 0 0 7 4 0 0 2 0 31 191 59 89 59 267 572 913 749 587 421 143 2342 2363 1361 592
0 0 5 20 0 1 0 1 0 0 7 19 3 13 0 0 0 2 0 0 0 0 0 0 0 0 0 0 0 8 129 258 262 85 305 448 626 361 416 1210 1277 1321 2501 1378
0 0 0 3 24 1 2 11 5 0 2 33 0 37 0 6 15 22 30 0 0 0 0 0 0 0 0 0 0 0 25 344 274 458 291 415 692 658 517 462 816 1051 1725 1818
46 42 58 92 37 34 7 25 22 50 58 23 0 16 1 28 35 12 10 0 0 0 0 3 5 0 6 2 13 17 172 193 281 243 217 467 486 784 714 619 237 364 285 1106
80 70 141 15 1 102 158 54 118 52 84 44 58 12 26 13 0 0 0 0 0 0 0 13 19 17 5 33 61 18 141 118 213 255 176 452 202 306 270 292 139 144 101 174
103 67 73 38 39 93 95 35 40 192 154 105 4 0 3 1 14 0 0 0 0 0 0 1 0 3 23 29 18 51 127 131 290 350 786 721 839 763 263 409 495 204 464 449
53 120 43 69 133 104 46 15 118 40 95 13 14 24 0 16 45 37 0 0 0 2 0 0 0 10 31 28 245 254 147 149 144 101 330 398 785 990 751 789 781 547 582 724
73 164 87 52 46 163 105 139 200 241 313 91 19 16 78 2 38 26 1 2 1 11 4 0 8 24 32 39 12 234 269 180 222 299 216 240 408 500 751 872 944 993 969 1171
58 16 116 14 33 130 186 189 255 86 99 203 192 31 110 0 1 92 0 5 2 0 2 15 15 8 22 31 22 28 165 35 13 161 181 361 476 358 461 515 541 1006 1062 1018
55 57 32 4 111 61 0 0 0 4 43 0 56 30 85 42 80 17 9 53 20 65 49 20 9 7 11 25 32 16 22 1 19 41 26 39 124 560 605 583 611 517 416 716
4 0 14 34 28 60 23 0 1 0 74 101 59 32 44 81 1 3 23 77 10 58 144 87 107 14 12 14 9 4 4 8 11 8 6 30 133 93 0 39 89 192 286 283
10 19 29 23 25 29 25 19 8 19 3 64 19 34 42 126 17 24 89 52 0 6 2 110 217 135 79 46 44 38 33 12 4 4 0 16 21 11 0 0 0 0 38 251
56 42 38 21 37 31 39 32 59 29 23 16 18 29 51 144 93 21 14 124 25 164 188 116 110 119 109 175 109 59 69 37 10 2 0 0 0 0 0 0 0 0 19 121
15 30 60 34 58 22 5 111 42 28 56 10 14 21 189 211 98 151 196 88 188 266 25 15 74 171 262 89 25 0 0 0 0 0 0 0 1 1 0 0 0 0 12 195
17 27 52 20 31 5 8 26 41 6 0 16 3 0 22 49 28 1 17 84 44 114 24 79 84 72 63 18 0 0 0 0 0 0 0 0 0 6 5 0 0 0 40 318
16 45 128 53 104 30 30 51 184 192 148 204 267 228 64 32 30 123 314 14 6 15 10 5 12 1 0 4 2 0 0 0 0 4 1 2 4 18 7 13 0 77 168 358
25 49 61 49 82 21 99 221 132 23 108 229 137 124 88 34 125 20 88 32 1 3 2 0 0 0 0 2 2 0 0 0 0 18 33 33 30 12 28 47 31 213 329 841
41 20 15 48 67 21 188 189 170 64 223 177 90 13 22 19 30 39 3 0 2 0 4 3 7 22 20 51 29 23 35 5 2 4 21 19 29 18 7 108 359 749 791 928
206 318 144 83 78 95 168 27 94 84 103 102 22 24 21 17 14 18 21 25 24 13 11 16 25 22 19 26 8 21 9 0 0 1 27 26 41 35 16 291 651 758 777 770
195 112 37 159 268 327 75 71 76 48 37 33 25 17 31 16 17 33 29 16 14 10 19 15 8 2 10 20 23 37 0 0 0 14 44 53 46 46 136 455 628 794 736 651
33 52 138 14 51 32 0 5 3 25 12 33 36 46 85 57 31 4 6 25 27 20 16 5 16 8 19 36 29 23 2 0 9 28 10 13 128 297 404 552 638 680 719 543
2 9 9 1 1 0 0 0 10 14 13 22 15 42 59 35 13 16 18 19 16 20 22 25 12 9 21 14 18 7 5 12 26 40 60 69 199 329 369 512 328 552 492 797
10 18 23 18 4 13 7 10 40 40 67 42 27 15 21 19 16 23 12 15 12 14 16 14 16 16 15 13 7 4 4 5 22 47 65 35 84 259 254 40 1 0 173 764

GFSCGP_con_sbcape_075.txt.gz
CAPE
0 0 0 0 0 0 0 0 0 0 0 0 0 0 0 0 0 0 0 0 0 0 0 0 0 0 0 0 0 52 106 63 561 1505 1352 1145 907 718 754 434 334 418 1290 1943
0 0 0 0 0 0 0 0 0 0 0 0 0 0 0 0 0 0 0 0 0 0 0 0 8 0 0 0 1 0 4 199 130 1359 1366 1196 1125 993 591 538 473 391 611 879
0 0 0 0 0 0 0 0 0 0 0 0 0 0 0 0 0 0 0 0 0 0 0 0 0 0 0 0 0 0 11 19 58 156 693 1356 1357 1663 1179 649 420 315 317 397
0 0 0 0 0 0 0 0 0 0 0 0 0 0 0 0 0 0 0 0 0 0 0 0 0 0 0 0 0 0 2 23 33 0 122 136 624 831 940 746 889 577 332 243
0 0 0 0 0 0 1 0 0 0 0 0 0 0 0 0 0 0 0 0 0 0 0 0 0 0 0 0 0 0 0 20 28 19 82 131 397 317 243 271 431 1392 994 493
0 0 0 0 0 1 19 0 0 0 0 0 0 0 0 0 0 0 0 0 0 0 0 0 0 0 0 0 0 0 0 9 82 63 10 11 46 182 120 82 87 145 241 642
0 0 0 7 3 0 0 1 0 0 0 0 0 0 1 0 0 0 0 0 0 0 0 0 0 0 0 0 0 0 0 0 0 6 26 122 166 229 141 61 47 23 39 123
0 0 0 39 8 3 0 0 0 0 0 0 0 2 0 0 8 0 0 0 0 0 0 0 0 0 0 0 0 0 0 0 0 10 39 18 49 265 275 225 68 15 35 17
0 0 0 21 29 0 7 37 21 3 0 1 0 0 0 15 11 18 0 0 0 0 0 0 0 0 0 0 0 0 4 4 0 0 0 2 171 124 50 38 57 375 156 112
0 0 0 25 60 26 82 34 30 4 12 8 0 1 18 32 3 0 0 0 0 0 0 0 0 0 0 0 0 0 0 0 0 0 0 174 100 166 127 137 123 94 154 230
0 7 2 2 31 2 13 13 7 3 4 42 5 0 103 6 0 0 0 0 0 0 0 0 0 0 0 0 0 3 3 4 5 1 0 0 0 21 171 400 350 441 462 438
12 3 8 29 17 0 31 1 1 34 23 0 3 0 1 48 0 0 0 0 0 0 0 0 0 0 0 0 0 0 16 8 1 13 19 6 0 0 0 2 7 5 25 305
16 11 0 0 0 1 0 1 0 0 1 0 36 0 0 68 1 0 0 0 0 0 0 0 0 0 0 0 0 0 0 0 0 0 0 4 1 4 18 0 0 5 15 38
2 0 0 0 0 0 5 20 1 1 0 0 0 0 0 45 8 0 0 0 0 0 0 0 0 0 0 0 0 0 0 0 0 0 0 0 0 0 0 0 0 0 0 0
0 0 0 3 11 2 2 0 0 10 0 0 0 0 0 14 55 11 1 0 0 0 0 0 0 0 0 0 0 0 0 0 0 0 0 0 0 0 0 0 0 0 0 0
1 0 2 0 0 0 5 1 4 14 27 47 6 12 1 8 11 0 0 8 0 0 0 23 60 2 5 5 0 0 0 0 0 0 0 0 0 0 0 0 0 0 0 0
0 0 0 0 0 0 0 5 41 5 14 0 0 0 0 0 11 6 9 66 4 1 15 1 0 0 1 3 0 0 0 0 0 0 0 0 0 0 0 0 0 0 0 0
0 0 0 0 0 0 0 10 57 140 98 9 4 46 7 8 12 0 15 0 6 2 0 0 0 0 0 0 0 0 0 0 0 0 0 0 0 0 0 0 0 0 0 0
0 0 0 9 1 0 1 83 97 6 37 20 0 0 0 0 0 0 30 4 0 0 0 0 0 0 0 0 0 0 0 0 0 0 0 0 0 0 0 0 0 0 0 0
13 0 0 2 8 0 24 40 4 35 0 0 2 0 0 0 0 0 0 0 0 0 0 0 0 0 0 0 0 0 0 0 0 0 0 0 0 0 0 0 0 0 0 0
4 2 0 0 0 1 11 8 0 5 2 0 0 0 1 18 9 0 0 0 0 0 0 0 0 0 0 0 0 0 0 0 0 0 0 0 0 0 0 0 0 0 0 0
1 4 3 1 12 14 0 0 6 9 5 0 0 0 5 2 1 0 0 0 0 0 0 0 0 0 0 0 0 0 0 0 0 0 0 0 0 0 1 2 1 1 0 5
20 3 17 22 25 8 0 0 0 0 0 2 4 0 2 3 5 13 18 0 0 3 0 0 10 2 0 0 0 0 0 0 0 0 0 0 0 0 0 7 28 38 23 57
7 0 0 0 0 0 0 0 0 0 0 2 2 12 14 1 5 5 0 9 8 0 0 2 6 2 5 6 12 10 6 3 6 3 0 0 0 0 1 28 33 39 68 142
0 1 2 1 0 0 0 0 4 1 0 6 5 19 16 3 9 26 2 21 10 4 7 10 14 8 6 2 0 0 2 4 11 12 5 2 9 17 5 1 40 105 158 211
2 3 9 0 0 4 1 2 1 6 26 53 37 21 16 43 23 31 10 20 13 9 5 5 7 5 5 11 5 2 4 7 11 9 0 0 16 31 11 6 66 1 1 50

GFSCGP_con_sbcape_078.txt.gz
CAPE
0 0 0 0 0 0 0 0 0 0 0 0 0 0 0 0 0 0 0 0 0 0 0 0 0 0 0 0 0 0 0 0 449 1289 1199 1050 1024 879 781 507 387 1183 1072 1227
0 0 0 0 0 0 0 0 0 0 0 0 0 0 0 0 0 0 0 0 0 0 0 0 0 0 0 0 0 8 53 32 1 1079 1155 933 905 802 638 576 501 238 596 1553
0 0 0 0 0 0 0 0 0 0 0 0 0 0 0 0 0 0 0 0 0 0 0 0 0 0 0 0 0 0 0 0 25 113 582 1237 1068 1401 896 506 428 495 333 666
0 0 0 0 0 0 0 0 0 0 0 0 0 0 0 0 0 0 0 0 0 0 0 0 0 0 0 0 0 0 0 0 0 0 104 449 961 1168 1149 990 685 667 434 392
0 0 0 0 0 0 0 0 0 0 0 0 0 0 0 0 0 0 0 0 0 0 0 0 0 0 0 0 0 0 0 0 0 0 0 41 122 218 286 301 411 797 762 614
0 0 0 0 0 0 0 0 0 0 0 0 0 0 0 0 0 0 0 0 0 0 0 0 0 0 0 0 0 0 0 0 0 0 0 0 37 61 130 142 216 379 827 831
0 0 0 0 0 0 0 0 0 0 0 0 0 0 0 0 0 0 0 0 0 0 0 0 0 0 0 0 0 0 0 0 0 4 0 0 0 9 35 59 5 15 8 17
0 0 0 0 0 0 0 0 0 0 1 0 0 0 0 0 0 0 0 0 0 0 0 0 0 0 0 0 0 0 0 0 0 0 0 0 1 36 90 109 52 18 12 17
0 0 0 0 0 0 0 0 2 1 0 21 0 0 0 0 0 9 21 0 0 0 0 0 0 0 0 0 0 0 0 0 0 0 0 0 0 0 1 22 35 27 141 165
0 0 0 0 0 0 8 16 14 1 11 20 4 0 0 0 0 0 0 0 0 0 0 0 0 0 0 0 0 0 0 0 0 0 0 0 0 0 2 5 36 27 34 60
0 0 0 0 0 0 0 4 4 0 6 5 1 0 22 7 0 0 0 0 0 0 0 0 0 0 0 0 0 0 0 0 0 0 0 0 0 16 54 193 350 287 334 420
0 0 0 0 0 0 21 24 7 6 7 46 3 0 0 0 0 0 0 0 0 0 0 0 0 0 0 0 0 0 0 0 0 0 0 0 0 0 0 0 1 3 2 59
0 0 0 0 0 0 12 34 29 4 0 0 2 0 0 0 0 0 0 0 2 0 0 0 0 0 0 0 0 0 0 0 0 0 0 0 0 0 0 0 0 0 0 0
0 0 0 0 0 0 0 4 7 3 0 0 0 0 0 0 0 0 0 0 2 3 0 0 0 0 0 0 0 0 0 0 0 0 0 0 0 0 0 0 0 0 0 0
0 0 0 0 0 0 0 0 0 2 0 0 0 0 0 0 0 0 0 0 7 0 0 1 0 0 0 0 0 0 0 0 0 0 0 0 0 0 0 0 0 0 0 0
0 0 0 0 0 0 0 0 0 0 0 2 0 0 0 0 0 0 0 0 12 10 30 19 2 1 0 0 0 0 0 0 0 0 0 0 0 0 0 0 0 0 0 0
0 0 0 0 0 0 0 4 11 27 13 0 0 1 0 1 3 0 0 0 0 0 5 2 0 0 0 0 0 0 0 0 0 0 0 0 0 0 0 0 0 0 0 0
0 0 0 0 0 0 0 69 107 79 63 25 2 2 9 1 0 0 0 0 0 0 0 0 0 0 0 0 0 0 0 0 0 0 0 0 0 0 0 0 0 0 0 0
0 0 0 1 0 0 0 43 10 2 5 0 0 0 0 0 0 0 4 0 0 0 0 0 0 0 0 0 0 0 0 0 0 0 0 0 0 0 0 0 0 0 0 0
0 0 0 0 0 0 4 5 0 0 1 0 0 0 0 0 0 0 0 0 0 0 0 0 0 0 0 0 0 0 0 0 0 0 0 0 0 0 0 0 0 0 0 0
2 3 0 0 0 0 1 0 0 6 0 0 0 0 0 2 1 0 0 0 0 0 0 0 0 0 0 0 0 0 0 0 0 0 0 0 0 0 0 0 0 0 0 0
0 1 1 1 0 2 0 0 0 1 0 0 0 0 2 5 1 1 7 0 1 0 0 0 0 0 0 0 0 0 0 0 0 0 0 0 0 0 0 0 0 0 0 0
2 3 13 0 0 0 0 0 0 0 1 0 0 0 11 17 20 23 15 16 0 0 0 0 1 5 0 4 10 4 0 0 0 0 0 0 0 0 0 0 0 0 0 0
0 0 0 0 0 0 0 0 0 0 0 1 5 23 13 3 1 6 0 6 5 8 15 11 15 3 5 7 4 0 1 1 6 5 7 1 0 0 0 0 0 0 0 5
0 0 0 0 0 0 0 0 1 1 0 7 6 20 15 14 17 1 1 6 19 20 12 16 18 11 11 14 11 1 1 0 0 0 2 10 11 2 0 0 0 3 8 15
0 0 3 0 0 4 2 2 1 8 5 15 14 10 5 22 30 11 2 8 31 17 18 16 14 10 5 5 3 1 5 7 4 1 1 5 12 17 14 8 5 0 0 3

GFSCGP_con_sbcape_084.txt.gz
CAPE
0 0 0 0 0 0 0 0 0 0 0 0 0 0 0 0 0 0 0 0 0 0 0 0 0 0 0 0 4 418 958 983 884 795 1018 1074 967 638 678 620 530 519 554 793
0 0 0 0 0 0 0 0 0 0 0 0 0 0 0 0 0 0 0 0 0 0 0 0 0 0 0 0 0 94 781 839 1057 1169 1219 1275 1257 942 743 701 625 664 690 721
0 0 0 0 0 0 0 0 0 0 0 0 0 0 0 0 0 0 0 0 0 0 0 0 0 0 0 0 0 42 336 697 1233 1271 1141 846 1036 831 812 807 950 807 996 1051
0 0 0 0 0 0 0 0 0 0 0 0 0 0 0 0 0 0 0 0 0 0 0 0 0 0 0 0 0 0 157 285 812 1171 1507 1398 1477 1744 1070 970 1027 864 825 1123
0 0 0 0 0 0 0 0 0 0 0 0 0 0 0 0 0 0 0 0 0 0 0 0 0 0 0 0 0 0 0 10 152 1068 1626 1562 1308 1186 843 775 912 896 870 804
0 0 0 0 0 0 0 0 0 0 0 0 0 0 0 0 0 0 0 0 0 0 0 0 0 0 0 0 0 0 0 0 0 182 543 1132 1264 908 790 491 670 704 673 685
0 0 0 0 0 0 0 0 0 0 0 0 0 0 0 0 0 0 0 0 0 0 0 0 0 0 0 0 0 0 0 0 0 0 17 79 139 116 175 80 90 136 187 212
0 0 0 0 0 0 0 0 0 0 0 0 0 0 0 0 0 0 0 0 0 0 0 0 0 0 0 0 0 0 0 0 0 0 0 0 0 0 0 0 0 1 1 2
0 0 0 0 0 0 0 0 0 0 0 0 0 0 0 0 0 0 0 0 0 0 0 0 0 0 0 0 0 2 0 0 0 6 3 15 23 28 38 0 0 0 0 1
0 0 0 0 0 0 0 0 0 0 0 0 0 0 0 0 0 0 0 0 0 0 0 0 0 0 0 0 0 0 0 0 2 15 0 0 0 1 3 0 0 0 0 0
0 0 0 0 0 0 0 0 0 0 0 14 0 0 0 0 0 0 0 0 0 0 0 0 0 0 0 0 0 0 0 0 0 0 0 0 0 3 0 2 0 0 0 0
0 0 0 0 0 0 0 0 0 0 0 0 0 0 0 0 0 0 0 0 0 0 0 0 0 0 0 0 0 0 0 0 0 0 0 0 0 0 3 7 0 0 44 188
1 0 0 0 0 0 0 0 0 0 0 0 5 0 0 0 0 0 0 0 0 0 0 0 0 0 0 0 0 0 0 0 0 0 0 0 0 0 0 0 0 46 64 12
10 0 0 0 0 0 0 0 0 0 0 0 0 0 0 0 0 0 0 0 0 0 0 0 0 0 0 0 0 0 0 0 0 0 0 0 0 0 0 0 0 0 0 0
0 0 0 0 0 0 0 0 0 0 0 0 0 0 0 0 0 0 0 0 0 0 0 0 0 0 0 0 0 0 0 0 0 0 0 0 0 0 0 0 0 0 0 0
0 0 0 0 0 0 0 0 0 0 0 0 0 0 0 0 0 0 0 0 0 0 0 0 0 0 0 0 0 0 0 0 0 0 0 0 0 0 0 0 0 0 0 0
0 0 0 0 0 0 0 0 0 0 0 0 0 0 0 0 0 0 0 0 0 0 0 0 0 0 0 0 0 0 0 0 0 0 0 0 0 0 0 0 0 0 0 0
0 0 0 0 0 0 0 0 0 0 0 0 0 1 0 0 0 0 0 0 0 0 0 0 0 0 0 0 0 0 0 0 0 0 0 0 0 0 0 0 0 0 0 0
0 0 0 0 0 0 0 0 0 0 0 0 0 0 0 0 0 0 0 0 0 0 0 0 0 0 0 0 0 0 0 0 0 0 0 0 0 0 0 0 0 0 0 0
0 0 0 0 0 0 0 0 0 0 0 0 0 0 0 0 1 0 0 0 0 0 0 0 0 0 0 0 0 0 0 0 0 0 0 0 0 0 0 0 0 0 0 0
1 5 0 0 0 0 0 0 0 0 0 0 0 0 0 0 0 0 0 0 0 0 0 0 0 0 0 0 0 0 0 0 0 0 0 0 0 0 0 0 0 0 0 0
0 0 0 0 0 0 0 0 0 0 0 0 0 0 1 0 0 6 19 12 12 2 0 0 0 0 0 0 0 0 0 0 0 0 0 0 0 0 0 0 0 0 0 0
7 3 5 0 0 0 0 0 0 0 0 0 2 5 8 11 18 12 20 12 13 44 30 2 0 0 0 0 0 0 0 0 0 0 0 0 0 0 0 0 0 0 0 0
0 0 2 0 0 0 0 0 0 0 2 5 10 17 21 24 19 8 28 27 13 25 19 18 9 5 11 8 0 0 0 3 10 6 0 0 0 0 0 0 0 0 0 0
0 0 0 0 0 0 0 0 0 1 5 10 16 23 25 22 12 19 25 11 4 33 8 2 8 13 23 14 10 11 22 12 8 3 2 4 7 1 0 0 0 0 0 0
0 0 2 2 0 0 0 0 0 8 16 15 27 26 15 26 53 34 28 12 22 19 1 9 10 2 32 8 4 6 23 7 5 6 8 13 24 18 14 0 0 0 0 0

GFSCGP_con_sbcape_087.txt.gz
CAPE
0 0 0 0 0 0 0 0 0 0 0 0 0 0 0 0 0 0 0 0 0 0 0 0 0 0 0 0 7 980 2045 2435 2070 2073 2004 1964 2014 1887 1893 2036 1868 1740 1708 1949
0 0 0 0 0 0 0 0 0 0 0 0 0 0 0 0 0 0 0 0 0 0 0 0 0 0 0 0 15 250 1248 2498 2219 1936 1855 1895 1842 1757 1558 1588 1911 1925 1793 1907
0 0 0 0 0 0 0 0 0 0 0 0 0 0 0 0 0 0 0 0 0 0 0 0 0 0 0 0 0 81 656 1980 2626 2396 1931 1962 2099 1864 1603 1622 1773 1861 1750 1621
0 0 0 0 0 0 0 0 0 0 0 0 0 0 0 0 0 0 0 0 0 0 0 0 0 0 0 0 0 0 352 1360 2334 2804 2646 2578 2457 2227 2125 2013 2016 2108 2057 1977
0 0 0 0 0 0 0 0 0 0 0 0 0 0 0 0 0 0 0 0 0 0 0 0 0 0 0 0 0 29 137 584 1737 2743 3077 3033 3040 2731 2740 2598 2643 2872 2373 2159
0 0 0 0 0 0 0 0 0 0 0 0 0 0 0 0 0 0 0 0 0 0 0 0 0 0 0 0 0 0 267 493 1014 2080 2663 3184 3421 3190 2754 2859 2936 2965 2901 2701
0 0 0 0 0 0 0 0 0 0 0 0 0 0 0 0 0 0 0 0 0 0 0 0 0 0 0 0 0 0 116 610 909 1576 2626 3183 3623 3624 3221 3009 3022 2904 2570 2406
0 0 0 0 0 0 0 0 0 0 2 2 0 0 0 0 0 0 0 0 0 0 0 0 0 0 0 0 0 0 47 459 763 1137 2160 2574 2722 2698 2559 2405 2244 2338 2355 2273
0 0 0 0 0 0 0 0 0 0 0 2 0 0 0 0 0 0 0 0 0 0 0 0 0 0 0 0 20 8 82 349 690 815 988 952 852 898 858 1008 1190 1178 1169 1034
0 0 0 0 0 0 0 0 2 1 1 3 0 0 0 0 0 0 0 0 0 0 14 13 0 0 4 0 98 212 203 356 631 519 517 579 670 709 874 949 916 952 958 876
0 0 0 0 0 0 0 1 0 0 6 4 2 0 0 0 0 0 0 0 0 0 14 39 1 0 103 31 63 157 216 375 584 632 683 706 667 734 860 1069 1107 1134 1090 1074
0 6 4 0 0 0 0 8 16 39 2 20 25 3 0 0 0 0 0 0 0 0 0 56 41 0 104 90 14 112 217 143 172 259 228 495 538 695 984 1299 1251 1188 1218 1160
0 0 1 1 0 0 1 0 2 1 0 0 36 1 0 0 0 0 0 0 0 0 0 0 61 26 27 20 69 61 0 0 28 14 32 268 282 609 1100 1341 1342 1323 1460 1724
8 2 0 3 1 0 3 1 9 26 61 19 29 0 0 0 0 0 0 0 0 0 0 0 0 0 0 0 6 22 14 0 0 0 0 66 456 553 744 1035 1343 1509 1678 1812
2 3 0 0 0 1 0 0 0 20 4 33 0 0 0 0 0 0 9 5 0 0 0 0 0 0 0 0 0 0 0 0 0 1 0 10 140 308 347 558 943 1355 1626 1594
0 3 1 0 0 0 0 0 0 0 0 2 0 0 0 0 0 0 1 0 0 0 0 0 0 0 0 0 0 0 0 0 0 0 0 0 0 2 30 378 327 862 1198 1207
3 2 3 0 0 0 0 0 0 0 0 0 0 0 11 21 7 3 5 0 0 0 0 0 0 0 0 0 0 0 0 0 0 0 0 0 0 0 0 14 50 485 787 889
0 0 2 0 1 0 0 0 0 0 0 0 10 48 50 15 11 1 0 0 0 0 0 0 0 0 0 0 0 0 0 0 0 0 0 0 0 0 0 0 8 251 518 509
0 0 7 9 11 0 0 2 5 5 0 0 1 3 10 5 9 0 0 0 0 0 0 0 0 0 0 0 0 0 0 0 0 0 0 0 0 0 0 0 14 175 167 105
0 0 16 1 6 6 0 2 0 2 6 0 6 2 0 4 6 0 0 0 1 4 7 4 0 2 9 6 0 0 0 0 0 0 0 0 0 0 0 0 0 0 8 10
14 9 2 1 21 4 0 0 0 32 14 0 0 3 11 11 15 25 31 30 20 20 34 22 30 26 34 19 12 4 0 0 0 0 0 0 0 0 0 0 0 0 0 0
27 45 24 18 30 15 0 2 11 16 0 7 6 11 18 18 20 22 25 32 39 47 35 32 39 69 58 38 26 17 23 15 7 6 1 0 0 0 0 0 0 0 0 0
43 62 76 27 59 0 0 0 0 1 5 8 11 14 18 22 24 33 28 36 32 33 59 49 40 70 16 36 56 30 25 15 16 7 5 5 0 0 0 0 0 0 0 0
17 0 45 18 6 5 0 0 0 3 11 14 10 23 26 26 21 28 32 43 39 47 61 29 76 60 30 26 47 17 37 24 20 19 14 11 11 7 11 7 2 0 0 0
7 26 20 13 7 1 1 0 4 4 9 17 12 10 34 23 28 43 37 38 43 47 40 68 38 34 21 32 13 3 12 27 37 44 35 27 21 27 20 16 11 10 5 0
14 15 30 17 4 5 4 5 14 21 17 12 18 20 19 35 38 41 39 37 30 33 39 39 37 48 35 25 25 29 48 53 51 31 47 34 22 22 13 23 25 1 0 0